EW1440 Weather Reports


time (UTC)temp
C
wind
direction
speed
KPH
gust
KPH
rain 1hr
cm
rain 24hr
cm
rain mn
cm
humidity
%
barometer
mb
20260507060531 18 70 8.0 12.9 0.00 0.00 0.00 83 1015.0
20260507060047 18 94 6.4 12.9 0.00 0.00 0.00 83 1014.7
20260507055534 18 100 8.0 14.5 0.00 0.00 0.00 82 1014.7
20260507055034 18 68 6.4 16.1 0.00 0.00 0.00 82 1014.7
20260507054552 18 66 9.7 16.1 0.00 0.00 0.00 82 1014.5
20260507054032 18 62 6.4 14.5 0.00 0.00 0.00 82 1014.4
20260507053533 18 65 6.4 16.1 0.00 0.00 0.00 82 1014.4
20260507053044 18 83 9.7 19.3 0.00 0.00 0.00 82 1014.3
20260507052533 18 72 9.7 19.3 0.00 0.00 0.00 82 1014.0
20260507052031 18 55 9.7 19.3 0.00 0.00 0.00 82 1014.2
20260507051549 18 57 6.4 17.7 0.00 0.00 0.00 82 1014.1
20260507051033 18 51 9.7 19.3 0.00 0.00 0.00 82 1014.1
20260507050533 18 57 8.0 19.3 0.00 0.00 0.00 82 1013.8
20260507050048 18 72 11.3 19.3 0.00 0.00 0.00 82 1013.7
20260507045534 18 91 9.7 16.1 0.00 0.00 0.00 82 1013.8
20260507045037 18 60 6.4 16.1 0.00 0.00 0.00 82 1013.9
20260507044549 18 68 8.0 16.1 0.00 0.00 0.00 82 1013.9
20260507044032 18 47 6.4 14.5 0.00 0.00 0.00 82 1014.0
20260507043531 18 85 6.4 17.7 0.00 0.00 0.00 82 1013.9
20260507043049 18 76 9.7 17.7 0.00 0.00 0.00 82 1013.9
20260507042530 18 56 8.0 17.7 0.00 0.00 0.00 82 1014.0
20260507042035 18 37 6.4 14.5 0.00 0.00 0.00 82 1014.3
20260507041549 18 43 4.8 14.5 0.00 0.00 0.00 82 1014.2
20260507041033 18 43 6.4 14.5 0.00 0.00 0.00 81 1014.2
20260507040531 18 37 3.2 14.5 0.00 0.00 0.00 82 1014.1
20260507040051 18 47 3.2 14.5 0.00 0.00 0.00 82 1013.8
20260507035533 18 46 4.8 14.5 0.00 0.00 0.00 81 1013.7
20260507035034 18 5 6.4 17.7 0.00 0.00 0.00 81 1013.6
20260507034549 18 60 8.0 17.7 0.00 0.00 0.00 81 1013.4
20260507034033 18 41 11.3 16.1 0.00 0.00 0.00 81 1013.4
20260507033537 18 45 9.7 16.1 0.00 0.00 0.00 81 1013.2
20260507033048 18 64 8.0 14.5 0.00 0.00 0.00 81 1013.1
20260507032534 18 45 8.0 14.5 0.00 0.00 0.00 80 1013.2
20260507032033 18 77 8.0 14.5 0.00 0.00 0.00 80 1013.3
20260507031550 18 66 6.4 19.3 0.00 0.00 0.00 80 1013.3
20260507031036 18 98 6.4 19.3 0.00 0.00 0.00 80 1013.1
20260507030531 18 51 8.0 19.3 0.00 0.00 0.00 80 1013.0
20260507030056 19 39 9.7 19.3 0.00 0.00 0.00 80 1012.9
20260507025532 19 36 9.7 19.3 0.00 0.00 0.00 80 1013.0
20260507025035 19 49 9.7 17.7 0.00 0.00 0.00 79 1013.0
20260507024548 19 33 4.8 19.3 0.00 0.00 0.00 79 1013.0
20260507024035 19 35 11.3 25.7 0.00 0.00 0.00 79 1012.9
20260507023537 19 49 11.3 25.7 0.00 0.00 0.00 78 1012.9
20260507023048 19 31 14.5 24.1 0.00 0.00 0.00 78 1012.7
20260507022532 19 21 12.9 20.9 0.00 0.00 0.00 78 1012.7
20260507022032 20 33 8.0 20.9 0.00 0.00 0.00 78 1012.8
20260507021602 20 57 9.7 17.7 0.00 0.00 0.00 77 1012.7
20260507021034 20 332 8.0 19.3 0.00 0.00 0.00 77 1012.7
20260507020532 20 16 4.8 20.9 0.00 0.00 0.00 77 1012.6
20260507020056 20 22 6.4 20.9 0.00 0.00 0.00 77 1012.7
20260507015534 20 28 12.9 20.9 0.00 0.00 0.00 76 1012.5
20260507015031 20 29 11.3 20.9 0.00 0.00 0.00 76 1012.4
20260507014609 20 44 8.0 24.1 0.00 0.00 0.00 76 1012.2
20260507014035 20 10 12.9 24.1 0.00 0.00 0.00 75 1012.1
20260507013534 20 58 12.9 27.4 0.00 0.00 0.00 75 1012.0
20260507013053 21 62 14.5 27.4 0.00 0.00 0.00 75 1011.9
20260507012534 21 24 11.3 25.7 0.00 0.00 0.00 74 1011.4
20260507012036 21 26 14.5 24.1 0.00 0.00 0.00 74 1011.5
20260507011548 21 50 11.3 24.1 0.00 0.00 0.00 74 1011.6
20260507011034 21 33 12.9 24.1 0.00 0.00 0.00 73 1011.6
20260507010535 21 349 14.5 24.1 0.00 0.00 0.00 73 1011.5
20260507010100 22 26 14.5 22.5 0.00 0.00 0.00 72 1011.3
20260507005535 22 24 12.9 20.9 0.00 0.00 0.00 73 1011.6
20260507005033 22 58 9.7 19.3 0.00 0.00 0.00 74 1011.6
20260507004547 22 353 8.0 22.5 0.00 0.00 0.00 74 1011.4
20260507004035 22 33 9.7 22.5 0.00 0.00 0.00 73 1011.3
20260507003534 22 37 9.7 25.7 0.00 0.00 0.00 73 1011.1
20260507003047 22 29 11.3 25.7 0.00 0.00 0.00 72 1011.2
20260507002536 23 20 8.0 30.6 0.00 0.00 0.00 73 1011.3
20260507002033 23 36 11.3 30.6 0.00 0.00 0.00 72 1011.1
20260507001552 23 29 14.5 24.1 0.00 0.00 0.00 72 1010.8
20260507001030 23 26 9.7 22.5 0.00 0.00 0.00 72 1010.9
20260507000531 23 20 11.3 27.4 0.00 0.00 0.00 72 1010.9
20260507000048 23 8 11.3 27.4 0.00 0.00 0.00 72 1010.8
20260506235535 23 39 12.9 27.4 0.00 0.00 0.00 72 1010.8
20260506235036 24 29 16.1 27.4 0.00 0.00 0.00 71 1010.5
20260506234547 24 22 14.5 27.4 0.00 0.00 0.00 70 1010.4
20260506234034 24 37 16.1 30.6 0.00 0.00 0.00 71 1010.2
20260506233532 24 2 12.9 30.6 0.00 0.00 0.00 71 1010.1
20260506233049 25 39 14.5 30.6 0.00 0.00 0.00 70 1010.2
20260506232534 25 8 17.7 25.7 0.00 0.00 0.00 69 1010.1
20260506232034 25 345 12.9 25.7 0.00 0.00 0.00 69 1010.0
20260506231546 25 52 11.3 25.7 0.00 0.00 0.00 69 1009.9
20260506231035 25 16 16.1 24.1 0.00 0.00 0.00 69 1009.8
20260506230531 26 7 16.1 25.7 0.00 0.00 0.00 69 1009.7
20260506230103 26 345 12.9 25.7 0.00 0.00 0.00 68 1009.7
20260506225535 27 39 16.1 25.7 0.00 0.00 0.00 68 1009.7
20260506225035 27 350 11.3 27.4 0.00 0.00 0.00 66 1009.6
20260506224549 28 23 12.9 27.4 0.00 0.00 0.00 66 1009.5
20260506224032 29 18 16.1 27.4 0.00 0.00 0.00 63 1009.4
20260506223531 30 47 16.1 32.2 0.00 0.00 0.00 66 1009.3
20260506223047 30 66 16.1 32.2 0.00 0.00 0.00 66 1009.3
20260506222534 30 57 19.3 32.2 0.00 0.00 0.00 65 1009.3
20260506222033 31 340 9.7 19.3 0.00 0.00 0.00 66 1009.2
20260506221548 31 53 8.0 17.7 0.00 0.00 0.00 65 1009.2
20260506221034 31 51 6.4 16.1 0.00 0.00 0.00 65 1009.1
20260506220533 31 354 8.0 17.7 0.00 0.00 0.00 64 1009.1
20260506220051 31 37 9.7 17.7 0.00 0.00 0.00 68 1009.1
20260506215534 31 54 9.7 17.7 0.00 0.00 0.00 65 1009.1
20260506215034 30 6 6.4 19.3 0.00 0.00 0.00 66 1009.1
20260506214547 30 23 9.7 19.3 0.00 0.00 0.00 67 1009.0
20260506214033 30 33 8.0 17.7 0.00 0.00 0.00 69 1009.0
20260506213535 29 63 8.0 17.7 0.00 0.00 0.00 69 1009.2
20260506213047 30 62 11.3 17.7 0.00 0.00 0.00 68 1009.1
20260506212533 30 99 4.8 14.5 0.00 0.00 0.00 67 1009.1
20260506212031 30 10 3.2 9.7 0.00 0.00 0.00 67 1009.3
20260506211547 30 42 3.2 12.9 0.00 0.00 0.00 66 1009.4
20260506211031 31 14 6.4 12.9 0.00 0.00 0.00 65 1009.5
20260506210537 30 85 6.4 12.9 0.00 0.00 0.00 70 1009.5
20260506210051 29 114 3.2 14.5 0.00 0.00 0.00 72 1009.5
20260506205533 30 57 8.0 14.5 0.00 0.00 0.00 68 1009.4
20260506205036 30 88 3.2 12.9 0.00 0.00 0.00 68 1009.5
20260506204547 30 124 3.2 12.9 0.00 0.00 0.00 68 1009.6
20260506204033 30 305 4.8 14.5 0.00 0.00 0.00 68 1009.6
20260506203533 30 30 1.6 14.5 0.00 0.00 0.00 69 1009.8
20260506203051 29 349 4.8 14.5 0.00 0.00 0.00 77 1009.8
20260506202533 28 59 3.2 12.9 0.00 0.00 0.00 69 1009.8
20260506202033 29 62 4.8 14.5 0.00 0.00 0.00 72 1009.8
20260506201606 30 26 4.8 14.5 0.00 0.00 0.00 67 1009.8
20260506201037 28 355 1.6 11.3 0.00 0.00 0.00 68 1009.9
20260506200533 28 72 3.2 14.5 0.00 0.00 0.00 74 1009.9
20260506200052 28 83 6.4 14.5 0.00 0.00 0.00 73 1010.0
20260506195531 28 99 3.2 14.5 0.00 0.00 0.00 71 1009.9
20260506195032 28 2 6.4 14.5 0.00 0.00 0.00 71 1010.1
20260506194552 28 317 0.0 11.3 0.00 0.00 0.00 69 1010.1
20260506194036 29 94 4.8 11.3 0.00 0.00 0.00 71 1010.1
20260506193530 28 18 1.6 6.4 0.00 0.00 0.00 76 1010.3
20260506193054 28 76 1.6 11.3 0.00 0.00 0.00 74 1010.4
20260506192535 28 107 3.2 12.9 0.00 0.00 0.00 75 1010.4
20260506192036 28 0 4.8 12.9 0.00 0.00 0.00 72 1010.5
20260506191547 28 111 4.8 22.5 0.00 0.00 0.00 75 1010.5
20260506191036 28 166 6.4 22.5 0.00 0.00 0.00 72 1010.5
20260506190533 29 120 11.3 20.9 0.00 0.00 0.00 73 1010.6
20260506190047 29 104 8.0 19.3 0.00 0.00 0.00 72 1010.5
20260506185532 28 86 8.0 14.5 0.00 0.00 0.00 75 1010.5
20260506185035 28 112 8.0 16.1 0.00 0.00 0.00 74 1010.6
20260506184551 28 143 8.0 16.1 0.00 0.00 0.00 72 1010.7
20260506184035 28 93 9.7 16.1 0.00 0.00 0.00 76 1010.8
20260506183534 28 118 8.0 16.1 0.00 0.00 0.00 76 1010.8
20260506183047 27 126 8.0 16.1 0.00 0.00 0.00 75 1011.0
20260506182534 28 120 9.7 16.1 0.00 0.00 0.00 74 1011.0
20260506182035 27 151 3.2 12.9 0.00 0.00 0.00 79 1011.1
20260506181549 27 66 6.4 16.1 0.00 0.00 0.00 79 1011.2
20260506181032 27 183 4.8 17.7 0.00 0.00 0.00 78 1011.2
20260506180537 27 97 8.0 17.7 0.00 0.00 0.00 80 1011.3
20260506180049 26 134 9.7 17.7 0.00 0.00 0.00 81 1011.3
20260506175536 26 136 11.3 17.7 0.00 0.00 0.00 84 1011.2
20260506175033 25 141 6.4 14.5 0.00 0.00 0.00 84 1011.3
20260506174545 25 146 8.0 14.5 0.00 0.00 0.00 85 1011.3
20260506174035 25 100 6.4 14.5 0.00 0.00 0.00 86 1011.3
20260506173536 25 119 4.8 12.9 0.00 0.00 0.00 86 1011.4
20260506173105 25 133 4.8 11.3 0.00 0.00 0.00 86 1011.3
20260506172534 25 104 6.4 11.3 0.00 0.00 0.00 86 1011.4
20260506172033 25 106 4.8 14.5 0.00 0.00 0.00 86 1011.4
20260506171554 25 139 4.8 14.5 0.00 0.00 0.00 86 1011.4
20260506171035 25 97 8.0 16.1 0.00 0.00 0.00 86 1011.3
20260506170533 25 97 9.7 16.1 0.00 0.00 0.00 85 1011.4
20260506170044 25 84 11.3 19.3 0.00 0.00 0.00 84 1011.3
20260506165538 26 100 8.0 19.3 0.00 0.00 0.00 85 1011.4
20260506165034 26 79 11.3 19.3 0.00 0.00 0.00 85 1011.3
20260506164547 25 96 11.3 19.3 0.00 0.00 0.00 84 1011.4
20260506164035 25 108 11.3 19.3 0.00 0.00 0.00 85 1011.4
20260506163533 25 88 11.3 16.1 0.00 0.00 0.00 86 1011.3
20260506163101 25 69 9.7 14.5 0.00 0.00 0.00 86 1011.3
20260506162534 25 102 6.4 14.5 0.00 0.00 0.00 86 1011.3
20260506162037 25 42 9.7 14.5 0.00 0.00 0.00 87 1011.2
20260506161548 25 89 6.4 14.5 0.00 0.00 0.00 89 1011.1
20260506161036 24 76 9.7 14.5 0.00 0.00 0.00 90 1011.1
20260506160535 24 66 9.7 14.5 0.00 0.00 0.00 89 1011.0
20260506160046 24 76 8.0 14.5 0.00 0.00 0.00 89 1011.0
20260506155533 24 62 6.4 14.5 0.00 0.00 0.00 89 1011.0
20260506155034 24 64 4.8 12.9 0.00 0.00 0.00 89 1011.0
20260506154555 24 84 6.4 12.9 0.00 0.00 0.00 89 1010.8
20260506154033 24 64 6.4 12.9 0.00 0.00 0.00 89 1010.8
20260506153534 24 54 4.8 12.9 0.00 0.00 0.00 89 1010.7
20260506153049 24 75 8.0 12.9 0.00 0.00 0.00 89 1010.7
20260506152534 24 38 4.8 9.7 0.00 0.00 0.00 90 1010.7
20260506152037 24 85 4.8 9.7 0.00 0.00 0.00 90 1010.6
20260506151549 24 64 3.2 8.0 0.00 0.00 0.00 90 1010.6
20260506151033 24 50 3.2 8.0 0.00 0.00 0.00 90 1010.6
20260506150534 24 60 4.8 8.0 0.00 0.00 0.00 90 1010.6
20260506150048 23 58 3.2 9.7 0.00 0.00 0.00 90 1010.4
20260506145536 23 62 3.2 9.7 0.00 0.00 0.00 91 1010.4
20260506145039 23 62 3.2 9.7 0.00 0.00 0.00 91 1010.4
20260506144548 23 65 3.2 9.7 0.00 0.00 0.00 91 1010.3
20260506144033 23 109 4.8 9.7 0.00 0.00 0.00 91 1010.2
20260506143537 23 92 4.8 9.7 0.00 0.00 0.00 91 1010.2
20260506143045 23 94 3.2 6.4 0.00 0.00 0.00 92 1010.1
20260506142534 23 95 1.6 8.0 0.00 0.00 0.00 92 1010.0
20260506142037 23 120 3.2 9.7 0.00 0.00 0.00 92 1009.9
20260506141553 23 115 3.2 11.3 0.00 0.00 0.00 92 1009.9
20260506141035 23 95 3.2 11.3 0.00 0.00 0.00 92 1009.8
20260506140535 23 105 4.8 11.3 0.00 0.00 0.00 92 1009.8
20260506140055 23 74 3.2 14.5 0.00 0.00 0.00 92 1009.7
20260506135532 23 112 4.8 14.5 0.00 0.00 0.00 92 1009.6
20260506135033 23 135 6.4 14.5 0.00 0.00 0.00 92 1009.3
20260506134548 23 114 8.0 14.5 0.00 0.00 0.00 92 1009.3
20260506134035 23 115 3.2 12.9 0.00 0.00 0.00 92 1009.1
20260506133535 23 119 4.8 14.5 0.00 0.00 0.00 92 1009.0
20260506133045 23 130 6.4 14.5 0.00 0.00 0.00 92 1009.0
20260506132534 23 135 4.8 11.3 0.00 0.00 0.00 92 1008.9
20260506132034 23 145 6.4 11.3 0.00 0.00 0.00 92 1009.0
20260506131548 23 126 4.8 11.3 0.00 0.00 0.00 92 1009.1
20260506131036 23 150 3.2 12.9 0.00 0.00 0.00 92 1008.9
20260506130534 23 124 3.2 16.1 0.00 0.00 0.00 92 1008.8
20260506130052 23 138 8.0 16.1 0.00 0.00 0.00 92 1008.8
20260506125535 23 147 6.4 12.9 0.00 0.00 0.00 92 1008.7
20260506125033 23 154 6.4 12.9 0.00 0.00 0.00 92 1008.6
20260506124545 23 136 6.4 12.9 0.00 0.00 0.00 92 1008.7
20260506124033 23 124 4.8 12.9 0.00 0.00 0.00 92 1008.7
20260506123533 23 139 4.8 12.9 0.00 0.00 0.00 92 1008.6
20260506123042 23 121 6.4 12.9 0.00 0.00 0.00 92 1008.7
20260506122533 23 86 6.4 12.9 0.00 0.00 0.00 92 1008.7
20260506122033 23 129 3.2 9.7 0.00 0.00 0.00 92 1008.7
20260506121549 23 127 3.2 8.0 0.00 0.00 0.00 92 1008.7
20260506121034 23 114 1.6 6.4 0.00 0.00 0.00 91 1008.7
20260506120534 23 89 3.2 12.9 0.00 0.00 0.00 91 1008.7
20260506120106 23 172 4.8 12.9 0.00 0.00 0.00 91 1008.7
20260506115534 23 103 4.8 11.3 0.00 0.00 0.00 91 1008.6
20260506115033 23 114 4.8 11.3 0.00 0.00 0.00 91 1008.6
20260506114558 23 109 3.2 8.0 0.00 0.00 0.00 91 1008.5
20260506114033 23 120 1.6 8.0 0.00 0.00 0.00 91 1008.6
20260506113533 23 124 3.2 8.0 0.00 0.00 0.00 91 1008.6
20260506113046 23 119 3.2 8.0 0.00 0.00 0.00 91 1008.6
20260506112535 23 116 1.6 8.0 0.00 0.00 0.00 91 1008.6
20260506112034 23 126 3.2 8.0 0.00 0.00 0.00 91 1008.6
20260506111553 23 99 3.2 6.4 0.00 0.00 0.00 91 1008.6
20260506111033 23 63 0.0 4.8 0.00 0.00 0.00 91 1008.6
20260506110534 23 63 1.6 4.8 0.00 0.00 0.00 91 1008.6
20260506110051 23 0 0.0 4.8 0.00 0.00 0.00 91 1008.7
20260506105532 23 0 1.6 4.8 0.00 0.00 0.00 91 1008.7
20260506105036 23 122 0.0 8.0 0.00 0.00 0.00 91 1008.6
20260506104547 23 122 1.6 8.0 0.00 0.00 0.00 91 1008.7
20260506104034 23 0 1.6 8.0 0.00 0.00 0.00 91 1008.6
20260506103534 23 99 1.6 4.8 0.00 0.00 0.00 91 1008.5
20260506103047 23 99 0.0 6.4 0.00 0.00 0.00 91 1008.4
20260506102535 23 99 1.6 9.7 0.00 0.00 0.00 91 1008.4
20260506102034 23 0 1.6 9.7 0.00 0.00 0.00 91 1008.4
20260506101547 23 86 3.2 14.5 0.00 0.00 0.00 91 1008.6
20260506101033 23 120 3.2 16.1 0.00 0.00 0.00 91 1008.4
20260506100533 23 146 4.8 16.1 0.00 0.00 0.00 90 1008.2
20260506100051 23 153 8.0 16.1 0.00 0.00 0.00 91 1008.2
20260506095532 23 149 6.4 12.9 0.00 0.00 0.00 91 1008.2
20260506095034 23 134 6.4 12.9 0.00 0.00 0.00 91 1008.2
20260506094547 23 154 1.6 9.7 0.00 0.00 0.00 90 1008.4
20260506094034 23 108 4.8 12.9 0.00 0.00 0.00 90 1008.4
20260506093537 23 130 3.2 14.5 0.00 0.00 0.00 90 1008.5
20260506093105 23 119 6.4 19.3 0.00 0.00 0.00 90 1008.5
20260506092534 23 148 8.0 22.5 0.00 0.00 0.00 90 1008.5
20260506092034 23 154 11.3 22.5 0.00 0.00 0.00 90 1008.3
20260506091549 23 142 9.7 17.7 0.00 0.00 0.00 90 1008.4
20260506091034 23 163 9.7 17.7 0.00 0.00 0.00 90 1008.4
20260506090533 23 148 6.4 14.5 0.00 0.00 0.00 90 1008.4
20260506090055 23 155 6.4 16.1 0.00 0.00 0.00 90 1008.5
20260506085533 23 141 4.8 19.3 0.00 0.00 0.00 90 1008.4
20260506085034 23 137 11.3 19.3 0.00 0.00 0.00 89 1008.4
20260506084547 23 116 8.0 16.1 0.00 0.00 0.00 89 1008.5
20260506084038 23 113 4.8 14.5 0.00 0.00 0.00 89 1008.5
20260506083534 23 123 4.8 14.5 0.00 0.00 0.00 89 1008.5
20260506083047 23 111 6.4 12.9 0.00 0.00 0.00 89 1008.5
20260506082534 23 134 6.4 14.5 0.00 0.00 0.00 89 1008.6
20260506082034 23 116 4.8 14.5 0.00 0.00 0.00 89 1008.5
20260506081544 23 137 6.4 14.5 0.00 0.00 0.00 89 1008.6
20260506081042 23 159 8.0 19.3 0.00 0.00 0.00 89 1008.6
20260506080534 23 160 8.0 19.3 0.00 0.00 0.00 89 1008.7
20260506073053 23 151 9.7 24.1 0.00 0.00 0.00 89 1008.7
20260506072535 23 116 8.0 24.1 0.00 0.00 0.00 89 1008.7
20260506072033 23 159 12.9 22.5 0.00 0.00 0.00 89 1008.7
20260506071548 23 118 6.4 22.5 0.00 0.00 0.00 89 1008.8
20260506071033 23 122 11.3 22.5 0.00 0.00 0.00 89 1008.7
20260506070535 23 128 8.0 22.5 0.00 0.00 0.00 89 1008.7
20260506062034 23 118 12.9 24.1 0.00 0.00 0.00 90 1008.9
20260506061559 23 153 9.7 24.1 0.00 0.00 0.00 90 1008.9
20260506061034 23 130 11.3 24.1 0.00 0.00 0.00 90 1008.8